This is the latest recevied weather packets stored in our database for station/object KD7CIH. If no packets are shown the sender has not sent any weather packets the latest 1 day(s).
| Time | Temp. | Humidity | Pressure | Rain* | Wind** | Luminosity | Snow |
|---|---|---|---|---|---|---|---|
| 1778028700 | 2.22° C | 79% | 1007 hPa | 0.51 mm | 2.68 m/s, 92° | - | - |
| 1778028273 | 2.22° C | 80% | 1006.9 hPa | 0.25 mm | 2.24 m/s, 115° | - | - |
| 1778027976 | 2.22° C | 80% | 1006.7 hPa | 0.51 mm | 2.24 m/s, 152° | - | - |
| 1778027802 | 2.22° C | 81% | 1006.6 hPa | 0.51 mm | 1.34 m/s, 215° | - | - |
| 1778027373 | 2.22° C | 81% | 1006.5 hPa | 0.51 mm | 1.34 m/s, 133° | - | - |
| 1778027073 | 2.22° C | 81% | 1006.6 hPa | 0.76 mm | 1.79 m/s, 215° | - | - |
| 1778026900 | 2.22° C | 81% | 1006.5 hPa | 1.02 mm | 1.79 m/s, 244° | - | - |
| 1778026473 | 2.78° C | 81% | 1006.5 hPa | 1.02 mm | 1.79 m/s, 88° | - | - |
| 1778026174 | 2.78° C | 81% | 1006.4 hPa | 1.27 mm | 1.34 m/s, 151° | - | - |
| 1778025876 | 2.78° C | 83% | 1006.5 hPa | 1.27 mm | 0.45 m/s, 134° | - | - |
| 1778025574 | 2.78° C | 82% | 1006.4 hPa | 1.27 mm | 0 m/s | - | - |
| 1778025274 | 2.78° C | 83% | 1006.5 hPa | 1.27 mm | 0 m/s | - | - |
| 1778025102 | 2.78° C | 84% | 1006.4 hPa | 1.52 mm | 0 m/s | - | - |
| 1778024673 | 2.78° C | 84% | 1006.4 hPa | 1.52 mm | 0 m/s | - | - |
| 1778024374 | 2.78° C | 84% | 1006.3 hPa | 1.27 mm | 0.45 m/s, 90° | - | - |
| 1778024073 | 2.78° C | 84% | 1006.3 hPa | 1.52 mm | 1.34 m/s, 124° | - | - |
| 1778023777 | 2.78° C | 83% | 1006.3 hPa | 0.51 mm | 2.24 m/s, 78° | - | - |
| 1778023474 | 3.33° C | 81% | 1006.4 hPa | 0.51 mm | 2.68 m/s, 91° | - | - |
| 1778023173 | 3.33° C | 80% | 1006.4 hPa | 0.51 mm | 1.79 m/s, 84° | - | - |
| 1778022873 | 3.33° C | 78% | 1006.3 hPa | 0.51 mm | 1.79 m/s, 91° | - | - |
| 1778022576 | 3.89° C | 78% | 1006.1 hPa | 0.51 mm | 2.24 m/s, 76° | - | - |
| 1778022275 | 3.89° C | 75% | 1006.1 hPa | 0.51 mm | 1.79 m/s, 79° | - | - |
| 1778022102 | 4.44° C | 73% | 1006.1 hPa | 0 mm | 0.89 m/s, 327° | - | - |
| 1778021676 | 5° C | 76% | 1006.1 hPa | 0 mm | 0.89 m/s, 321° | - | - |
| 1778021374 | 5° C | 75% | 1006.1 hPa | 0 mm | 1.34 m/s, 267° | - | - |
* Rain latest hour (hover to see other rain measurements)
** Current wind speed in m/s (hover to see current wind gust speed)